Regional Weather Roundup
Issued by NWS Green Bay, WI

Home | Current Version | Previous Version | Text Only | Print | Product List | Glossary On
Versions: 1 2 3 4 5 6 7 8 9 10 11 12 13 14 15 16 17 18 19 20 21 22 23 24 25 26 27 28 29 30 31 32 33 34 35 36 37 38 39 40 41 42 43 44 45 46 47 48 49 50
000
ASUS43 KGRB 212110
RWRGRB

NORTH-CENTRAL AND NORTHEAST WISCONSIN REGIONAL WEATHER ROUNDUP
NATIONAL WEATHER SERVICE GREEN BAY WI
400 PM CDT SUN SEP 21 2014

WIZ005-009-010>012-018-019-212200-
NORTH CENTRAL WISCONSIN

CITY           SKY/WX    TMP DP  RH WIND       PRES   REMARKS
IRONWOOD       SUNNY     52  39  62 N5        30.10S
MANITOWISH WTR SUNNY     51  38  60 N8        30.10R
ARBOR VITAE    MOSUNNY   52  40  63 NW15G21   30.09R
EAGLE RIVER    MOSUNNY   51  37  59 NW15      30.07S
LAND O LAKES   MOSUNNY   49  38  63 N12G21    30.09R
RHINELANDER    MOSUNNY   52  39  61 NW12G21   30.08R
PHILLIPS       MOSUNNY   54  41  62 N9        30.10R
ANTIGO         SUNNY     54  41  61 N14G23    30.05R
TOMAHAWK       MOSUNNY   54  40  59 NW12      30.09R
MERRILL        MOSUNNY   57  42  56 N15G21    30.06R
$$

WIZ013-073-212200-
NORTHEAST WISCONSIN

CITY           SKY/WX    TMP DP  RH WIND       PRES   REMARKS
IRON MOUNTAIN  SUNNY     53  36  52 N20       30.02R
MARINETTE      MOSUNNY   55  39  54 N14G22    30.00R
OCONTO         MOSUNNY   56  41  58 N12       30.01R
$$

WIZ017-030-035>037-045-212200-
CENTRAL WISCONSIN

CITY           SKY/WX    TMP DP  RH WIND       PRES   REMARKS
MEDFORD        MOSUNNY   56  42  60 NW13      30.08R
WAUSAU         SUNNY     57  40  52 NW13G22   30.04R
MOSINEE        MOSUNNY   57  43  58 NW10G22   30.06R
MARSHFIELD     MOSUNNY   62  44  51 N17G26    30.06R
WISC RAPIDS    SUNNY     62  43  49 NW14G22   30.06R
STEVENS POINT  MOSUNNY   58  41  52 NW12G18   30.05R
WAUPACA        SUNNY     62  42  49 NW12G21   30.03R
SHAWANO        MOSUNNY   58  41  53 NW12      30.03R
CLINTONVILLE   SUNNY     59  37  44 N13       30.03R
$$

WIZ038-039-048-051-212200-
FOX VALLEY

CITY           SKY/WX    TMP DP  RH WIND       PRES   REMARKS
NWS GREEN BAY  PTSUNNY   58  44  60 NW13      30.01R
APPLETON       MOSUNNY   57  39  51 NW13G24   30.02R
OSHKOSH        SUNNY     58  43  57 NW10G21   30.01R
FOND DU LAC    MOSUNNY   58  42  55 N13G23    30.02R
$$

WIZ022-050-052-212200-
EAST CENTRAL WISCONSIN

CITY           SKY/WX    TMP DP  RH WIND       PRES   REMARKS
STURGEON BAY   PTSUNNY   55  41  58 N16G22    29.99R
MANITOWOC      CLOUDY    58  45  62 N14       30.00R
SHEBOYGAN      CLOUDY    56  45  66 NW16G22   30.00R
$$

LMZ563-521-522-541>543-212200-
LAKESHORE

STATION/POSITION TIME  TEMP    WIND        PRES    VSBY  WAVE
                       AIR SEA DIR/SP/G                  HT/PER
                 (UTC) (F)     (DEG/KT/KT) (MB)    (MI)  (FT/S)
SHEBOYGAN LKSHOR 2100   55 51  330/ 14/ 15 1016.1R
KEWAUNEE LKSHORE 2100   57     330/  9/ 15 1014.4R
TWO RIVERS CG    2100   56                 1015.8      6   2
NORTHPORT PIER   2100   50     330/ 26/ 35 1015.2S
N MID LAKE BUOY  2100   48 58  330/ 27/ 31 1014.5R         6/ 6
S GREEN BAY BUOY 2000   55     VRB 17/ 21  1016.6R
STURGEON BAY CG  2100   56 57  360/  9     1015.1      6   3
CHAMBERS ISLAND  2100   54     320/ 18/ 23 1015.6S
MENOMINEE LKSHOR 2100   55     320/ 18/ 23 1016.2R
$$



USA.gov is the U.S. government's official web portal to all federal, state and local government web resources and services.